FENGYUN 1C DEB

Satellite information

Favourite Embed

Satellite Type and Status

DEBRISIN ORBIT

Key statistics

Satellite FENGYUN 1C DEB at a glance.

Uptime

9714

Days in orbit

Revolutions

≈ 14.2

Per day

Orbit

SSO

Sun Synchronous Orbit

Inclination

98.6

Latest

Satellite identification and parameters

Extended collection of information and parameters for FENGYUN 1C DEB.

Object identification

Identified? True

Debris? True

Object name: FENGYUN 1C DEB

International designator: 1999-025ABV

Object number (NORAD): 30358

Object ID (CCSDS): 30358

Country: PEOPLES REPUBLIC OF CHINA (PRC)

Current information (Y/N): Y

RCS size: SMALL

Orbital parameters

Period: 101.361 minutes

Inclination: 98.5541 deg

SMA: 7201.246 km

Apoapsis: 882.657 km

Periapsis: 763.564 km

RAAN: 175.4285 deg

Eccentricy: 0.00826892

Argument of periapsis: 200.851 deg

Mean anomaly: 340.0181 deg

Mean motion: 14.20663788 rev/day

Mean motion (dot): 0.00006043 rev/day2

B* drag term: 0.0027277378 1/REarth

Two-line elements (TLE)

Creation date: Dec. 12, 2025, 10:14 a.m.

Reference frame: TEME

Reference center: EARTH

Epoch: Dec. 12, 2025, 7:12 a.m. UTC

TLE line 0: 0 FENGYUN 1C DEB

TLE line 1: 1 30358U 99025ABV 25346.30016852 .00006043 00000-0 27277-2 0 9999

TLE line 2: 2 30358 98.5541 175.4285 0082689 200.8510 340.0181 14.20663788969112

Live tracking on map

Real-time ground track for satellite FENGYUN 1C DEB.

In-orbit conjunctions

A list of the most updated potential collisions computed for object FENGYUN 1C DEB.

Target Orbit TCA Probability of collision Miss distance Type
CZ-6A DEB LEO 2025-10-29 16:06:58 0.0002123818 121.0 (m) DEBRIS
CZ-6A DEB SSO 2025-01-08 03:38:24 0.0001505731 161.0 (m) DEBRIS
CZ-11 R/B SSO 2024-07-01 18:17:59 0.0001022149 568.0 (m) ROCKET BODY

Associated space launch

Chinese polar orbiting meteorological satellite

FENGYUN 1C DEB was lifted into orbit during the mission ‘Long March 4B | Feng Yun 1C’, on board a Long March 4B space rocket.

The launch took place on May 10, 1999, 1:33 a.m. from Launch Complex 7.

For more information about the launch, click the button.

Launch to space Long March 4B | Feng Yun 1C
Long March 4B | Feng Yun 1C

Agency: N/A

Status: Launch Successful

Launch date: May 10, 1999, 1:33 a.m. UTC

Rocket: Long March 4B

Launch pad: Launch Complex 7

Location: Taiyuan Satellite Launch Center, People's Republic of China

...

Latest news about this satellite

There are no fresh news available about this satellite. Check back as we update our databases every day.


Newsletter sign-up

Weekly statistics, charts and insights to help you stay on top of the space industry.